Location: Sternwarte Stuttgart
(48.7670°N, 9.1830°E)
Time: 20:39:39
(UTC+02:00)

Meteor 1-16 Rocket - Pass Details

Date: 24 January 2019
Orbit: 791 x 906 km, 81.2° (Epoch: 22 April)

Event Time Altitude Azimuth Distance (km) Brightness Sun altitude
Rises 06:14:50 0° 207° (SSW) 3,476 7.2 -17.7°
Reaches altitude 10° 06:17:23 10° 213° (SSW) 2,526 6.4 -17.3°
Maximum altitude 06:22:56 48° 288° (WNW) 1,113 4.4 -16.4°
Drops below altitude 10° 06:28:21 10° 2° (N) 2,468 6.5 -15.5°
Sets 06:30:49 0° 8° (N) 3,388 7.3 -15.1°
